Volver al catálogo

DMSP 5D-2 F14

USA 131

ActivoMeteoSSO
NORAD 24753·PAYLOAD·🇺🇸 United States

Lanzado Apr 4, 1997 desde Vandenberg Space Force Base

Loading…

Próximos Pases (próximas 24 horas)

TLE

ActualizadoSource: Space-Track

Época: Sep 14, 2026, 14:06 UTC

1 24753U 97012A   26257.58780992  .00000095  00000-0  69089-4 0  9990
2 24753  98.7493 304.7362 0008598 187.9875 172.1164 14.16795023520954

Sigue DMSP 5D-2 F14 en tiempo real con AllMySat

Download on the App Store